Regional Weather Roundup
Issued by NWS San Diego, CA

Home | Current Version | Previous Version | Text Only | Print | Product List | Glossary On
Versions: 1 2 3 4 5 6 7 8 9 10 11 12 13 14 15 16 17 18 19 20 21 22 23 24 25 26 27 28 29 30 31 32 33 34 35 36 37 38 39 40 41 42 43 44 45 46 47 48 49 50
000
ASUS46 KSGX 312211
RWRSGX

SAN DIEGO HOURLY WEATHER ROUNDUP
NATIONAL WEATHER SERVICE SAN DIEGO CA
300 PM PDT TUE MAY 31 2016

NOTE: "FAIR" INDICATES FEW OR NO CLOUDS BELOW 12,000 FEET WITH NO
SIGNIFICANT WEATHER AND/OR OBSTRUCTIONS TO VISIBILITY.

CAZ042-043-060-061-PZZ750-775-312300-

GREATER SAN DIEGO AREA

CITY           SKY/WX    TMP DP  RH WIND       PRES   REMARKS
LINDBERGH FLD  CLOUDY    66  57  72 SW9       29.90S
POINT LOMA       N/A     65  58  78 W9          N/A
NATIONAL CITY    N/A     66  60  81 NW2       29.89F
CHULA VISTA      N/A     65  60  85 W6        29.82S
IMPERIAL BEACH CLOUDY    67  58  72 W13       29.89F
BROWN FIELD    CLOUDY    63  57  81 W9        29.88F
MIRAMAR MCAS   CLOUDY    69  56  62 W8        29.88F
MONTGOMERY FLD CLOUDY    66  56  70 W7        29.88F

$$

NORTH SAN DIEGO COUNTY

CITY           SKY/WX    TMP DP  RH WIND       PRES   REMARKS
CAMP PENDLETON PTSUNNY   68  58  70 W8        29.87F
OCEANSIDE AP   CLOUDY    68  56  65 W10       29.87F
OCEANSIDE HBR    N/A     65  61  88 SW9       29.90F
VISTA            N/A     66  60  80 W3        29.85F
CARLSBAD       CLOUDY    64  58  80 W9        29.87F
DEL MAR          N/A     66  61  85 W3        29.91F
LA JOLLA SCRIP   N/A     63  60  90 S3        29.88S
FALLBROOK        N/A     71  62  73 SW2       29.86S
ESCONDIDO        N/A     73  61  65 CALM      29.88F
SAN MARCOS       N/A     67  56  68 CALM      29.86S
POWAY            N/A     73  60  65 S3        29.88F

$$

EAST SAN DIEGO COUNTY

CITY           SKY/WX    TMP DP  RH WIND       PRES   REMARKS
RAMONA         SUNNY     74  58  57 W8        29.87F
SANTEE LAKES     N/A     71  60  67 S3        29.86S
LA MESA          N/A     67  58  73 SW5       29.81F
JAMUL            N/A     72  61  68 CALM      29.86F
DESCANSO N       N/A     76  59  56 W7        29.71S
MT. LAGUNA OBS   N/A     72  32  23 NE3       29.65S
CAMPO            N/A     78  56  46 SW17      29.84S

$$

ORANGE COUNTY AND THE LOS ANGELES BASIN

CITY           SKY/WX    TMP DP  RH WIND       PRES   REMARKS
JOHN WAYNE AP  PTSUNNY   68  57  68 S10       29.86F
LAKE FOREST FR   N/A     77  57  49 SW9       29.75F
HUNTINGTON BCH   N/A     67  61  80 SW2       29.89F
LOS ALAMITOS   PTSUNNY   68  58  71 SW8       29.86F
FULLERTON      PTSUNNY   70  57  63 S7        29.85F
LONG BEACH     PTSUNNY   67  58  72 S8        29.87F
L.A. AP        MOSUNNY   68  57  68 W10       29.87F
L.A. DOWNTOWN  SUNNY     72  58  61 VRB3      29.85F

$$

THE INLAND EMPIRE

CITY           SKY/WX    TMP DP  RH WIND       PRES   REMARKS
CORONA         SUNNY     77  59  53 W17G25    29.83F
CHINO          MOSUNNY   81  55  40 W16       29.84F
ONTARIO        MOSUNNY   78  55  44 SW15      29.84F
RIVERSIDE AP   SUNNY     80  55  42 W10G18    29.83F
MORENO VALLEY    N/A     85  61  44 NW7       27.96F
MARCH ARB      SUNNY     82  56  40 W13       29.84F
HORSETHIEF CYN   N/A     80  53  39 NE6       29.84F
PERRIS           N/A     83  58  43 W8        29.81F
HEMET EAST       N/A     84  52  32 SW6       29.70F
FRENCH VALLEY  FAIR      75  57  53 SW10G20   29.85F
TEMECULA         N/A     76  60  59 SW9       29.79F

$$

SAN BERNARDINO AND RIVERSIDE COUNTY MOUNTAINS

CITY           SKY/WX    TMP DP  RH WIND       PRES   REMARKS
BIG BEAR AP    MOSUNNY   73  28  19 NW9       30.14F
PINE COVE        N/A     77  49  37 CALM      29.77F

$$

SOUTHERN DESERT INCLUDING THE COACHELLA VALLEY

CITY           SKY/WX    TMP DP  RH WIND       PRES   REMARKS
PALM SPRINGS   MOSUNNY  100  49  17 E10       29.69F HX  97
THOUSAND PALMS   N/A    101  47  15 SE9       29.66F HX  97
PALM DESERT      N/A    100  54  21 SE5         N/A  HX  98
THERMAL        SUNNY    101  40  12 SE10      29.64F HX  96
BLYTHE         SUNNY    100  39  12 CALM      29.68F HX  95
IMPERIAL AP    SUNNY    102  39  11 VRB6      29.66F HX  97
EL CENTRO NAS  MOSUNNY  100  42  13 SE6       29.69F HX  95
YUMA AZ        SUNNY     98  39  13 SW10      29.69
MEXICALI       SUNNY    100  36  10 S3        29.69  HX  95

$$

UPPER DESERT

CITY           SKY/WX    TMP DP  RH WIND       PRES   REMARKS
VICTORVILLE AP MOSUNNY   95  28   9 CALM      29.87F
HESPERIA         N/A     94  34  12 N2        29.83F
PALMDALE       SUNNY     95  27   9 CALM      29.85F
LANCASTER      SUNNY     99  29   8 N9G18     29.83F
EDWARDS AFB    MOSUNNY   98  24   7 VRB6      29.80F
DAGGETT        SUNNY     99  28   8 E7        29.78F
29 PALMS N     MOSUNNY   97  25   7 CALM      29.84F
NEEDLES        SUNNY    103  30   8 CALM      29.68F HX  96

$$

REGIONAL REPORTS

CITY           SKY/WX    TMP DP  RH WIND       PRES   REMARKS
SANTA BARBARA  PTSUNNY   64  56  75 SW12      29.87F
SANDBERG       LGT RAIN  89  36  15 N13       30.02F
LAS VEGAS NV   MOSUNNY   97  30   9 VRB7      29.75F
PHOENIX AZ     MOSUNNY   96  25   8 W9G18     29.70F
TIJUANA        CLOUDY    64  54  68 NW9       29.91F FOG
ENSENADA NW      N/A     63  32  31 W2        29.86F

$$

OFFSHORE ISLANDS

CITY           SKY/WX    TMP DP  RH WIND       PRES   REMARKS
CATALINA ARPT  SUNNY     63  54  72 SW8       29.90S
SAN CLEMENTE I CLOUDY    61  54  77 SW9       29.90F
SAN NICOLAS IS PTSUNNY   64  32  30 NW13      29.88S

$$

MARINE AND OFFSHORE BUOY REPORTS

STATION/POSITION SKY/WX   TEMP    WIND        PRES    SWELL
                          AIR SEA DIR/SP/G            HT/PER/DIR
                          (F)     (DEG/KT/KT) (MB)    (FT/S/D)
TANNER BANKS               59 61  300/ 12/ 16 1012.2F   5/210/16
S CLEMENTE BASIN           59 63  260/  8/ 10 1012.0F   5/200/16
SAN NICOLAS IS.               59                N/A     5/190/17
SO. S. ROSA ISLA           57 59  300/ 14/ 16 1012.0F   5/180/15
W. S. BARBARA CH           56 56  310/  8/ 10 1011.9F   5/200/15
M. S. BARBARA CH           59 59  280/  4/  6 1012.5F
S. MONICA BASIN            60 64  250/  4/  6 1011.9F   3/210/15
S PEDRO CHANNEL               63                N/A     2/190/17
OCEANSIDE OFFSHR              64                N/A     3/190/17
TORREY PINES OTR              65                N/A     3/200/15
LA JOLLA 1                 63 66  270/  6/  7 1012.0F
SAN DIEGO BAY                 67              1012.4S
POINT LOMA SOUTH              65                N/A     3/190/15

$$




USA.gov is the U.S. government's official web portal to all federal, state and local government web resources and services.